カタログに戻る

STARLINK-35542

運用中通信VLEO
NORAD 66064·PAYLOAD·🇺🇸 United States

打ち上げ Oct 19, 2025 から Cape Canaveral Space Force Station

Loading…

次のパス (今後24時間)

TLE

最新Source: CelesTrak SupGP

元期: Sep 14, 2026, 21:10 UTC

1 66064C 25235G   26257.88243056 -.00015346  00000+0 -45349-3 0  2572
2 66064  53.1587  86.0792 0001228  85.9776 271.8410 15.34392045    10

AllMySatでSTARLINK-35542をリアルタイム追跡

Download on the App Store